Lapse_Rate
5.2 4.2 3.5 2.9 2.3 1.9 0.7 -0.6 -1.4 -2.5 -2.3 -2.9 -3.7 -3.8 -4.1 -3.2 -2.4 -2.2 -1.7 -1.5 -1.3 -1.1 -0.7 -0.0 0.6 1.5 2.8 3.5 3.3 4.2 4.7 4.1 5.1 3.1 2.4 1.8 2.2 2.9 3.3 3.1 3.3 3.3 3.5
5.2 4.8 3.4 1.9 1.6 1.0 0.8 -0.2 -1.9 -2.6 -3.0 -3.2 -4.0 -4.5 -4.7 -4.0 -3.0 -2.9 -2.7 -2.0 -2.0 -1.9 -1.5 -1.6 -0.7 0.3 1.2 2.8 4.7 4.4 4.4 4.0 3.7 5.1 4.0 5.0 4.3 3.1 3.3 3.1 3.1 3.1 3.3
5.5 5.1 4.4 2.9 1.9 0.9 0.4 -0.2 -1.3 -2.5 -3.4 -4.1 -3.9 -3.7 -3.4 -3.2 -2.9 -3.2 -2.8 -2.2 -1.6 -1.3 -1.5 -1.4 -1.2 -0.9 0.1 1.3 2.8 4.8 4.8 5.3 3.2 3.4 4.2 3.8 5.4 4.6 3.3 4.0 4.5 3.5 3.5
7.1 7.0 5.6 4.5 3.4 3.7 2.0 -0.0 -1.3 -2.7 -3.2 -3.6 -4.3 -4.7 -4.9 -3.9 -3.7 -3.6 -3.0 -2.4 -1.1 -0.4 0.1 -0.0 -0.3 -0.6 -0.3 1.0 2.0 3.6 5.2 5.2 4.3 2.2 2.1 2.5 2.2 4.4 4.5 4.0 3.2 4.1 3.0
7.2 7.1 6.0 5.4 4.3 3.5 3.5 0.5 -0.4 -2.5 -3.2 -3.5 -3.6 -3.1 -2.4 -1.7 -1.4 -1.1 -1.6 -1.5 -0.5 0.3 0.9 1.4 1.6 1.2 1.1 1.3 1.6 2.6 5.0 5.5 5.2 3.1 2.2 2.8 2.2 2.5 2.8 3.4 3.3 4.0 4.3
7.8 7.9 7.5 5.6 3.8 2.6 3.4 1.2 1.2 -0.6 -1.1 -1.9 -2.1 -1.9 -1.9 -1.6 -1.0 -1.1 -0.8 -0.6 -0.5 -0.0 0.6 1.3 1.6 2.0 2.1 2.5 2.7 3.1 3.8 6.2 4.7 3.7 3.6 3.5 3.8 4.0 3.1 3.4 3.7 3.0 4.5
6.4 6.7 7.7 7.2 5.5 3.4 2.2 3.1 1.9 1.3 0.3 -1.2 -1.0 -0.9 -0.7 -0.5 -0.1 -0.4 -0.2 -0.3 -0.2 0.2 0.5 0.7 0.7 0.9 3.0 3.6 3.3 3.0 3.2 6.5 5.5 4.1 3.6 3.8 4.4 3.9 4.0 3.8 5.0 4.5 4.0
6.0 5.0 5.7 6.9 6.9 6.6 5.2 3.7 3.1 1.8 0.4 -0.1 0.6 1.1 1.4 1.1 1.1 0.5 0.4 0.8 0.9 0.4 0.6 0.4 0.6 1.0 1.2 2.5 2.8 3.3 3.9 4.9 5.7 4.8 3.9 3.5 4.1 4.5 4.9 4.7 5.7 5.7 4.5
4.2 4.1 3.6 4.6 6.4 6.0 5.2 3.6 3.2 2.5 1.1 1.5 1.7 2.0 1.8 1.3 1.2 1.0 1.2 0.8 0.8 0.7 -0.1 -0.4 0.2 1.2 2.0 2.2 3.2 4.3 3.8 5.3 6.2 5.5 4.7 3.9 3.5 3.4 4.4 5.0 5.9 6.6 6.0
5.3 5.0 4.5 4.0 4.6 5.1 4.8 3.4 3.3 2.5 2.4 2.3 2.4 2.6 2.8 2.5 2.0 1.6 0.6 -0.0 -0.0 -0.1 -0.5 -0.8 -0.6 0.2 1.3 2.0 2.5 3.1 4.1 4.4 6.6 5.6 5.5 4.6 4.0 3.4 5.0 6.2 6.3 6.2 5.8
6.4 5.6 5.3 6.2 6.4 6.3 5.6 4.4 3.8 3.6 3.2 3.3 3.4 3.5 3.1 2.8 2.5 1.8 1.2 0.4 0.2 0.3 -0.4 -0.1 0.2 1.0 0.9 1.0 0.3 0.5 4.1 4.1 5.4 5.9 5.7 4.8 5.0 4.8 5.2 5.0 4.9 4.2 4.7
6.4 6.3 6.5 7.2 7.6 7.2 5.0 4.1 3.4 3.2 3.9 4.2 3.9 3.2 3.2 3.5 2.9 2.4 1.8 1.1 1.1 1.4 1.4 1.1 0.8 -0.4 -0.2 0.3 -0.2 -0.8 -0.1 4.7 5.2 5.4 4.7 4.8 5.2 5.7 5.4 5.0 4.2 4.3 4.4
7.6 7.5 7.6 7.9 7.4 7.0 5.3 4.4 4.4 4.3 4.2 4.3 4.0 3.6 3.9 3.9 3.6 3.7 3.2 2.5 1.8 2.1 2.0 1.5 1.1 0.1 -1.0 -0.4 -0.9 -1.2 -1.3 0.1 4.7 5.2 4.6 4.9 4.6 4.8 5.8 5.8 5.8 4.1 3.7
7.8 7.9 7.8 7.5 6.8 5.6 4.7 4.6 4.7 4.4 4.0 3.7 3.7 3.4 3.6 3.8 3.6 3.5 3.2 2.6 2.2 2.4 2.2 2.4 2.3 1.4 1.0 -0.2 -0.9 -1.9 -0.0 1.1 2.8 4.4 5.1 5.5 5.3 5.5 6.0 6.1 5.4 4.3 3.8
7.7 7.7 7.6 7.4 7.2 7.5 6.7 5.7 5.1 4.5 4.3 3.5 3.9 3.6 3.6 3.3 3.5 3.5 3.2 2.3 1.7 2.2 2.7 2.5 3.2 2.9 2.4 2.1 -0.0 -1.0 -0.8 -0.9 -0.8 -1.2 0.4 2.8 2.5 3.4 4.4 5.3 5.0 4.4 3.8
7.7 7.7 7.7 7.5 7.4 7.1 6.1 5.8 5.0 4.2 3.9 3.7 3.8 3.9 3.3 3.0 3.0 2.9 2.3 2.3 1.5 1.4 1.3 1.3 2.9 3.7 3.9 2.9 1.9 0.2 0.4 -0.1 -1.5 -2.4 -2.7 -2.4 -3.1 -1.8 -0.1 0.5 1.0 3.1 3.9
7.5 7.6 7.2 7.2 7.2 7.0 6.4 5.8 5.5 5.2 4.5 4.1 3.8 3.0 2.1 1.8 1.5 1.7 1.8 1.4 1.2 1.0 0.6 0.6 1.2 2.7 3.5 3.2 2.1 1.3 1.4 1.2 0.9 -1.1 -1.1 -1.7 -2.8 -3.7 -2.3 -2.9 -2.9 -3.7 -3.9
7.1 6.9 6.8 6.8 6.4 6.5 6.7 6.2 6.0 5.3 5.5 5.1 4.1 3.1 2.1 1.2 0.9 0.5 0.5 1.3 1.2 0.9 0.8 0.5 1.0 1.6 2.3 3.1 2.8 1.9 1.7 1.5 1.8 0.6 0.4 -0.2 -1.5 -2.5 -2.6 -2.9 -4.3 -5.6 -5.6
5.3 5.5 5.9 5.4 4.4 4.9 5.6 6.7 6.2 6.1 5.8 4.3 3.5 3.2 2.4 1.1 0.6 0.1 0.3 0.7 0.7 0.9 1.0 0.6 0.9 1.7 2.2 3.6 2.9 1.7 1.6 1.9 2.3 1.7 0.6 -0.0 -0.2 0.8 -2.4 -2.0 -3.7 -4.1 -5.2
6.6 5.5 3.9 2.9 3.9 4.7 4.9 5.5 5.6 5.7 5.9 4.7 4.2 3.8 3.2 1.8 0.7 0.6 0.0 0.2 0.0 0.5 0.9 1.2 1.7 2.3 1.9 3.2 4.0 3.5 2.7 1.8 2.0 1.8 1.8 2.3 1.4 -0.1 -0.8 -0.7 -2.7 -1.3 -3.9
5.3 4.9 4.5 4.0 4.6 5.1 5.7 5.0 5.0 4.8 5.5 5.4 4.5 3.6 2.9 2.7 1.7 1.6 1.1 0.5 0.5 0.7 0.7 0.9 1.5 1.6 2.2 2.2 3.6 4.3 3.2 3.0 3.0 3.3 2.8 2.8 2.8 2.1 1.1 1.0 -1.8 -1.0 -1.1
5.2 5.0 4.3 4.2 4.7 4.6 5.0 4.8 5.2 4.4 4.4 4.5 4.0 3.6 3.5 3.4 2.8 2.1 1.9 1.8 1.5 1.3 2.0 1.5 1.5 1.7 2.3 3.5 3.5 4.1 4.5 3.9 2.4 2.6 2.8 2.9 2.7 2.4 2.2 1.6 1.6 0.3 -0.7
5.0 5.2 4.6 4.7 4.0 4.1 4.2 4.1 5.2 5.9 5.3 4.6 4.0 4.0 4.1 4.0 3.4 3.2 2.7 2.4 3.1 3.5 4.3 3.8 3.6 3.7 3.5 2.5 3.5 3.6 3.6 3.3 2.3 3.3 3.1 2.2 1.9 2.2 1.4 2.3 2.2 1.2 1.1
3.3 4.2 4.4 3.9 3.6 3.9 4.3 4.6 4.7 5.2 5.6 5.5 5.8 5.8 5.3 5.7 6.0 5.9 5.5 4.5 5.2 5.9 7.3 5.4 4.8 4.8 4.9 6.3 5.7 3.5 2.5 2.2 1.7 1.9 1.8 2.0 2.3 2.1 2.0 2.2 2.5 2.8 3.1
2.5 3.5 3.3 3.2 3.5 3.9 3.3 2.6 3.6 4.8 6.3 6.0 6.0 6.1 6.4 6.2 6.1 6.4 6.0 6.0 6.2 7.2 7.3 7.5 6.5 6.4 5.8 7.5 8.6 7.1 4.5 3.6 2.7 1.3 0.2 -0.5 0.1 1.0 1.6 2.3 2.8 3.1 3.2
1.8 1.4 1.7 2.6 2.5 2.0 1.8 2.1 3.4 4.8 5.3 5.8 6.0 5.6 5.6 5.2 5.4 5.7 5.7 7.0 7.8 8.1 8.3 9.5 8.6 6.4 8.2 6.5 5.8 5.5 5.2 4.1 3.4 0.4 0.7 1.6 2.3 2.6 2.9 2.9 3.1 3.4 3.4
Wind_Speed
6 10 12 10 8 8 10 10 11 10 8 5 3 2 3 3 4 4 9 10 10 10 7 5 5 6 8 6 7 7 10 9 10 3 1 3 5 5 7 6 7 8 8
8 10 11 12 9 8 9 10 10 9 7 5 3 3 2 2 2 4 6 9 12 11 8 6 6 5 5 9 6 7 5 5 7 8 3 5 4 3 4 4 6 9 5
12 11 12 12 11 11 10 11 9 9 10 9 6 3 3 2 3 7 6 8 12 11 8 8 6 6 4 5 7 7 11 8 4 8 4 2 4 4 3 9 7 7 6
13 12 12 13 13 11 10 11 11 12 12 12 8 7 4 4 4 7 7 8 9 9 9 9 7 7 6 7 7 7 8 8 7 1 1 2 5 3 2 3 5 8 8
13 12 10 10 12 13 9 9 12 13 13 11 10 6 8 6 6 7 11 10 9 11 10 11 13 11 8 8 8 10 10 9 10 5 3 2 3 3 3 4 3 6 11
14 14 12 11 11 11 9 11 11 13 12 12 11 10 11 10 9 10 8 8 8 8 10 11 10 11 10 9 9 11 13 13 11 9 9 7 5 6 4 4 6 11 9
15 14 15 14 12 11 13 10 12 11 11 12 12 13 12 11 11 10 8 11 8 7 10 12 12 10 12 12 11 11 13 14 12 12 10 11 11 6 9 8 9 9 5
10 11 12 12 12 11 8 9 11 10 12 12 12 11 11 6 7 9 9 8 8 9 12 11 12 13 13 13 13 10 10 13 11 15 12 11 10 9 9 12 11 8 5
5 8 8 10 11 11 13 14 13 11 14 13 10 10 10 11 11 11 9 8 10 11 12 13 12 12 13 13 14 10 11 13 13 13 15 13 11 11 11 11 12 12 9
9 9 9 11 11 12 11 13 13 14 13 12 10 10 9 10 10 9 11 12 12 12 12 13 13 13 13 13 14 13 12 13 11 11 15 14 10 10 10 10 11 11 10
7 8 7 8 9 9 9 10 11 12 12 10 10 9 10 11 12 10 11 12 13 13 13 14 13 13 14 14 14 14 14 13 13 12 13 16 15 11 10 11 11 10 7
6 6 7 7 8 9 11 11 12 13 11 11 10 11 12 11 11 13 13 13 13 13 14 14 14 15 14 15 15 15 15 13 13 15 14 16 8 13 13 11 13 11 11
7 7 6 6 6 8 9 11 12 12 9 10 11 11 11 12 12 14 15 13 14 15 15 15 15 16 15 17 17 16 15 14 13 14 14 12 11 13 10 12 12 11 10
7 8 8 10 11 12 12 11 10 11 10 10 11 12 12 12 12 13 13 14 14 15 15 16 16 17 15 17 19 18 14 14 11 8 9 11 13 15 15 12 12 10 9
6 8 8 8 9 8 8 9 10 9 9 11 11 11 12 13 12 13 13 12 13 14 15 16 16 17 16 15 20 17 15 15 12 11 12 9 13 18 16 11 11 10 8
5 7 6 6 6 9 8 8 10 10 9 10 11 11 11 13 12 12 13 12 14 14 15 17 17 18 15 31 32 25 15 15 14 13 13 12 17 12 2 10 10 11 11
5 5 4 5 6 7 7 7 7 8 10 11 11 12 12 12 13 13 14 15 15 14 15 16 17 17 20 34 34 30 14 14 15 15 13 12 11 16 8 10 12 11 11
5 4 3 5 6 5 5 6 7 9 10 10 10 11 12 12 12 13 13 13 12 13 12 15 16 17 17 33 33 28 16 14 15 16 17 12 14 16 13 7 10 11 11
3 3 5 5 3 7 8 5 6 6 10 11 12 11 12 11 13 13 12 11 10 11 12 13 17 19 18 33 33 24 15 15 15 15 18 18 16 21 23 10 10 9 9
4 6 4 3 7 8 8 8 8 8 8 10 10 9 10 11 11 9 10 8 8 9 9 13 15 24 18 31 32 26 12 15 12 14 15 27 24 30 27 12 12 10 8
7 6 6 6 7 7 6 6 7 8 7 7 8 10 10 10 10 9 8 10 9 10 12 13 13 17 21 21 33 32 14 11 11 11 12 12 28 29 28 20 16 10 8
6 6 5 6 6 7 6 7 7 4 5 7 8 8 9 7 8 10 10 10 11 12 13 14 13 13 14 28 29 30 27 24 12 13 11 14 30 28 30 21 25 21 10
4 4 5 5 6 6 7 7 8 7 7 8 7 6 5 7 7 10 11 9 11 11 11 11 12 12 12 12 27 28 28 25 12 11 19 27 28 28 21 29 27 17 10
4 5 6 6 7 7 7 6 8 7 8 9 8 8 8 8 7 8 8 9 10 10 10 11 11 10 11 11 12 12 12 16 14 14 11 14 16 17 15 14 15 11 10
4 6 7 6 6 5 7 7 9 8 7 8 8 8 7 7 7 8 9 9 10 13 9 8 9 11 11 12 20 18 12 11 13 12 11 12 12 12 12 12 12 11 11
5 6 7 6 5 7 8 8 8 8 7 7 6 6 5 6 6 6 7 17 19 21 22 22 17 8 21 25 25 24 25 26 20 11 11 11 11 12 12 11 11 11 12
Wind_Direction
79 69 66 51 40 23 35 47 55 38 33 18 17 41 46 349 10 14 2 353 0 352 343 339 333 332 316 258 235 241 239 215 213 167 117 253 251 237 236 221 213 224 219
87 67 65 65 34 31 30 38 58 54 51 48 27 44 353 320 326 15 354 359 346 340 332 331 321 313 314 320 276 226 240 237 196 230 223 229 221 196 212 241 238 219 200
115 88 67 57 39 26 27 29 36 50 46 45 34 356 24 339 351 2 352 347 335 331 324 318 310 302 283 278 293 271 229 244 243 209 204 140 217 205 147 225 259 240 209
71 65 61 52 53 22 18 23 22 27 36 32 42 41 51 8 345 325 324 333 330 325 324 316 307 296 294 283 279 278 253 230 228 137 202 164 150 181 169 202 176 240 221
57 63 62 56 48 32 359 20 20 29 26 21 28 34 27 1 340 336 329 332 333 324 322 322 321 315 302 289 272 270 264 239 237 186 148 187 204 231 146 185 200 217 230
52 44 37 40 42 45 360 21 16 26 20 21 21 16 20 1 348 346 334 332 328 323 320 319 314 302 297 283 288 279 268 248 223 209 206 180 179 185 191 210 208 222 234
55 32 22 19 20 19 18 11 17 18 19 24 12 15 7 359 345 344 330 329 326 326 321 322 314 310 298 294 286 273 275 265 225 209 211 210 205 190 205 214 219 222 208
23 55 32 12 5 9 2 13 16 13 22 23 15 14 2 350 334 342 336 322 323 318 314 313 308 300 296 295 282 266 265 261 240 219 211 213 216 211 209 209 204 220 215
42 34 34 14 357 359 11 15 5 7 24 19 8 6 1 355 348 343 337 330 323 320 324 318 315 314 307 294 282 272 254 252 243 230 218 219 220 218 211 207 204 206 211
55 42 26 9 351 359 359 12 4 10 10 10 6 4 352 354 354 351 348 343 331 326 324 329 331 323 323 316 310 299 250 245 248 225 226 220 214 208 213 212 210 213 222
72 58 42 3 357 356 1 8 7 11 10 6 8 2 4 4 5 360 356 351 343 338 342 338 333 333 333 331 318 309 273 242 240 238 229 226 221 216 213 214 218 213 197
70 54 38 11 0 356 6 7 10 14 5 1 4 10 10 4 9 8 4 4 355 352 351 345 343 344 339 336 328 319 312 257 236 235 226 230 230 239 223 221 223 209 196
53 37 24 16 1 20 13 15 15 11 360 8 11 7 7 9 11 7 7 4 3 1 1 357 356 352 346 343 335 321 310 304 263 241 227 228 224 233 228 223 219 209 198
39 34 13 13 8 15 10 13 8 11 2 12 16 10 7 2 10 13 12 14 14 8 3 2 3 1 357 351 341 335 327 321 311 295 250 230 215 219 222 218 206 193 184
49 35 20 22 17 17 13 7 10 10 8 18 16 10 7 15 12 13 14 12 15 16 14 10 9 11 10 0 357 351 359 358 348 9 1 333 313 208 205 204 190 186 178
80 66 53 43 24 23 21 14 16 12 13 20 20 11 12 17 7 6 11 9 14 15 14 14 11 12 15 10 9 8 10 12 4 12 4 1 5 352 241 213 192 197 188
117 102 68 45 37 15 13 14 23 22 29 25 19 16 14 12 8 12 13 10 9 9 13 14 11 11 16 16 15 13 9 12 10 15 10 12 5 359 32 51 45 47 26
122 109 74 70 42 27 13 22 33 35 33 31 23 23 21 22 14 15 13 10 4 7 8 14 12 13 15 18 16 12 10 15 12 19 15 11 14 359 13 15 53 38 22
124 82 55 46 359 16 2 23 29 47 40 31 25 19 25 22 22 18 8 4 5 5 7 15 17 17 13 17 18 13 10 10 12 14 18 19 19 13 35 22 40 54 15
103 80 40 6 31 12 9 30 32 32 42 36 27 21 24 27 24 11 8 360 10 10 6 16 21 19 15 16 20 20 7 7 7 14 21 19 23 23 29 30 47 20 21
90 68 52 43 26 11 11 31 36 31 28 39 39 30 23 30 19 9 13 12 8 17 17 20 17 22 18 14 18 19 14 12 7 13 13 16 22 30 35 25 49 25 3
91 76 65 45 29 19 29 36 37 358 25 34 34 31 24 22 17 22 18 17 19 24 23 23 20 17 17 16 16 16 19 15 12 12 10 13 19 22 26 28 30 28 15
102 94 86 70 39 28 31 36 10 32 32 36 26 16 15 17 19 29 24 23 22 23 26 22 20 14 9 13 14 11 13 14 17 15 17 17 19 17 19 21 21 21 19
97 93 86 69 53 36 37 31 22 17 36 34 28 25 25 26 24 43 35 31 28 23 27 28 20 13 10 10 10 10 9 10 12 7 13 17 22 23 20 17 16 17 11
87 93 91 74 49 30 32 21 16 14 38 40 32 29 27 26 28 46 39 38 32 35 27 36 25 15 14 11 15 17 15 14 13 10 17 19 18 18 17 14 13 12 11
80 76 72 76 48 40 34 16 9 16 35 49 38 28 34 32 38 37 40 36 43 42 40 36 39 24 26 20 20 22 24 26 22 28 25 19 13 13 8 9 7 10 9